TJS-15

Last updated on Thu Sep 10 2026 00:03:02 GMT+0000 (Coordinated Universal Time)

1 63157U 25045A 26251.88728748 -.00000239 00000+0 00000+0 0 9999 2 63157 0.4189 84.9241 0000197 245.4126 65.7353 1.00273603 5595
UTC large
Height (km)
Speed (km/s)
/
Latitude / Longitude
Inclination (degrees)
Orbital Period (minutes)
Azimuth
Elevation
Range (km)
Doppler Factor

Next 0 passes for location: London (51.5072 / 0.1276)

No passes found over London.
TJS-15